Weather in Pylypets

Ukraine / Zakarpattia District     48°40′01″N   23°20′17″E
temp.,
°C
wind,
m/s
gust,
m/s
humid.,
%
clouds,
%
prec.,
mm/h
press.,
hPa
HPBL,
m
12 august, fri
fri1200:00+10ne22963 0.0 102144
03:00+9ne22972 0.0 102129
06:00+9ne22962 0.0 102131
09:00+16ne23690 0.0 1020276
12:00+23ene34447 0.0 10191619
15:00+20ene476653 0.4 1018905
18:00+21ene5664100 0.4 1017955
21:00+15nne2391100 0.4 101861
13 august, sat
sat1300:00+13nne2399100 0.0 101877
03:00+13ne2296100 0.0 101735
06:00+13ne2294100 0.0 101644
09:00+16nne248069 0.0 1015513
12:00+22ne235473 0.0 10131309
15:00+21ne446975 1.6 10121088
18:00+19ne4679100 2.8 1011430
21:00+16ne3890100 3.4 1012323
14 august, sun
sun1400:00+14nne249994 0.0 1012100
03:00+15nne239782 0.0 1011142
06:00+15nne239795 0.0 1010112
09:00+16nne2494100 0.3 1011324
12:00+20nne2374100 0.1 1010629
15:00+23nne2357100 0.1 10091079
18:00+23ne4459100 0.0 1008871
21:00+16nne229075 0.2 100937
15 august, mon
mon1500:00+14ne229691 0.4 100930
03:00+14ene119640 0.5 100815
06:00+14ne1195100 0.0 100811
09:00+18ene118194 0.3 1007161
12:00+22ssw116998 0.9 1007791
15:00+21s1283100 6.4 1008148
18:00+20ne018453 1.4 100778
21:00+15nne119565 2.8 100811
16 august, tue
tue1600:00+14ese219627 1.5 100919
03:00+14se229526 1.6 100922
06:00+14sse11954 0.0 100917
09:00+18s12875 0.1 1009167
12:00+24sw355138 0.1 10091187
15:00+26wsw4744100 0.3 10092077
18:00+25wsw35456 0.1 10082017
21:00+19nnw227346 0.2 101019